Regional Weather Roundup
Issued by NWS

Home | Current Version | Previous Version | Text Only | Print | Product List | Glossary Off
Versions: 1 2 3 4 5 6 7 8 9 10 11 12 13 14 15 16 17 18 19 20 21 22 23 24 25 26 27 28 29 30 31 32 33 34 35 36 37 38 39 40 41 42 43 44 45 46 47 48 49 50

166
ASUS43 KMPX 262210
RWRMN
WEATHER ROUNDUP FOR MINNESOTA
NATIONAL WEATHER SERVICE TWIN CITIES/CHANHASSEN MN
500 PM CDT WED APR 26 2017


NOTE: "FAIR" INDICATES FEW OR NO CLOUDS BELOW 12,000 FEET WITH NO
SIGNIFICANT WEATHER AND/OR OBSTRUCTIONS TO VISIBILITY. N/A MEANS
CURRENT SKY AND/OR WEATHER CONDITIONS ARE NOT AVAILABLE.

MNZ060>063-068>070-262300-
   Twin Cities Metro

CITY           SKY/WX    TMP DP  RH WIND       PRES   REMARKS
TWIN CITIES    CLOUDY    41  32  70 N10       29.54F
ST PAUL        CLOUDY    40  34  79 N13       29.55S
CRYSTAL        CLOUDY    39  31  72 N13       29.54F
BLAINE         CLOUDY    39  39 100 N9G18     29.54F
LAKEVILLE      CLOUDY    39  34  81 N13G20    29.54R
EDEN PRAIRIE   CLOUDY    41  34  76 NW14      29.54S
SOUTH ST PAUL  CLOUDY    40  35  80 NW12G17   29.54R
LAKE ELMO      CLOUDY    39  36  87 N13       29.54R
$$
MNZ001>005-007-008-013>017-022>024-027-028-262300-
   Northwest Minnesota

CITY           SKY/WX    TMP DP  RH WIND       PRES   REMARKS
BEMIDJI        LGT SNOW  28  25  89 NE9       29.67S WCI  19
HALLOCK        CLOUDY    36  27  69 NE10      29.80S
ROSEAU         CLOUDY    32  25  74 NE20      29.78S WCI  20
WARROAD        CLOUDY    30  25  80 NE20G25   29.79S WCI  18
THIEF RVR FALL LGT SNOW  28  25  86 N14       29.75S FOG     WCI  17
CROOKSTON      LGT SNOW  30  27  86 NE14G20   29.77S WCI  20
FOSSTON        LGT SNOW  28  25  86 N16       29.71S WCI  17
DETROIT LAKES  LGT SNOW  30  28  93 N7        29.67F WCI  23
MOORHEAD       LGT RAIN  28  27  93 N8        29.72F WCI  20
PARK RAPIDS    LGT SNOW  29  23  78 N13       29.63F VSB 1   WCI  19
MAHNOMEN       LGT SNOW  28  26  91 N6        29.69S WCI  22
$$
MNZ006-009>011-018-025>026-262300-
   North Central Minnesota

CITY           SKY/WX    TMP DP  RH WIND       PRES   REMARKS
BAUDETTE       CLOUDY    29  23  78 NE13      29.75R WCI  19
FLAG ISLAND    CLOUDY    32  21  64 NE23G31   29.80R WCI  19
INTL FALLS     LGT SNOW  27  22  81 NE14G20   29.71F VSB 3/4 WCI  16
WASKISH        CLOUDY    28  23  80 NE13G22   29.71S WCI  18
BIG FORK       LGT SNOW  28  23  80 N12       29.67R WCI  18
LONGVILLE      CLOUDY    28  25  86 N6        29.63F FOG     WCI  22
GRAND RAPIDS   FLURRIES  28  26  92 N9        29.65R WCI  19
CRANE LAKE     LGT SNOW  25  21  86 NE8       29.70S WCI  16
ORR            LGT RAIN  27  19  74 N3        29.63F
COOK           LGT SNOW  28  21  74 N8        29.64S WCI  20
WALKER         LGT SNOW  27  24  86 N6        29.65S WCI  21
$$
MNZ012-019>021-037-262300-
   Northeast Minnesota

CITY           SKY/WX    TMP DP  RH WIND       PRES   REMARKS
DULUTH         LGT SNOW  33  31  92 N9        29.57R VSB 1   WCI  25
ELY            LGT SNOW  27  21  80 N9        29.62S WCI  17
HIBBING        CLOUDY    29  25  85 N10       29.61S WCI  20
EVELETH        PTSUNNY   32  26  78 N8        29.62R WCI  24
DULUTH HARBOR  RAIN      36  34  93 NE9       29.60R
TWO HARBORS    CLOUDY    36  30  80 N6        29.56R
SILVER BAY     CLOUDY    34  30  86 N7        29.56R WCI  28
GRAND MARAIS     N/A     30  25  81 N9G23     29.56F WCI  22
G MARAIS ARPRT LGT SNOW  21  18  86 N6        29.53S WCI  14
$$
MNZ029>031-032-039>041-046>048-054>057-064-262300-
   West Central Minnesota

CITY           SKY/WX    TMP DP  RH WIND       PRES   REMARKS
FERGUS FALLS   CLOUDY    30  27  86 N12G20    29.66F WCI  21
WHEATON        CLOUDY    30  27  86 NW18G25   29.70F WCI  18
MORRIS         CLOUDY    32  28  86 NW15G24   29.64S WCI  22
ALEXANDRIA     CLOUDY    32  28  85 N13       29.62S WCI  22
ELBOW LAKE     CLOUDY    32  28  83 N9        29.64F WCI  24
WADENA         MIX PCPN  28  28 100 N6        29.62F WCI  22
GLENWOOD       CLOUDY    32  28  86 N9        29.62R WCI  24
APPLETON       CLOUDY    34  28  80 NW16      29.65S WCI  23
BENSON         CLOUDY    37  27  65 NE10      29.65R
ORTONVILLE     CLOUDY    30  27  86 N18       29.66S WCI  18
MADISON        CLOUDY    34  32  93 NW18      29.66S WCI  23
WILLMAR        LGT SNOW  36  34  93 NW12      29.63R
$$
MNZ033>034-036-042>043-049>051-058-059-262300-
   Central Minnesota

CITY           SKY/WX    TMP DP  RH WIND       PRES   REMARKS
ST CLOUD       CLOUDY    35  31  85 N16G22    29.58F WCI  25
SAUK CENTRE    MIX PCPN  31  29  90 N10       29.61S WCI  23
PAYNESVILLE    CLOUDY    32  33 100 N8        29.61S WCI  25
AITKIN         MIX PCPN  34  27  75 N7        29.60S WCI  28
PINE RIVER     CLOUDY    28  27  93 N5        29.66F FOG     WCI  23
BRAINERD       CLOUDY    30  27  88 N12       29.61F WCI  20
STAPLES        LGT SNOW  28  27  93 N8        29.61F VSB 1   WCI  20
LONG PRAIRIE   CLOUDY    32  30  93 CALM      29.61F
LITTLE FALLS   CLOUDY    32  28  86 NW5       29.62R FOG     WCI  27
LITCHFIELD     CLOUDY    36  34  93 N10       29.61R FOG
BUFFALO        CLOUDY    37  32  84 NW14      29.58S
MAPLE LAKE     CLOUDY    37  33  84 NW14      29.59S
HUTCHINSON     CLOUDY    36  34  90 NW13      29.60S
$$
MNZ037-044-045-052-053-262300-
   East Central Minnesota

CITY           SKY/WX    TMP DP  RH WIND       PRES   REMARKS
PRINCETON      LGT RAIN  37  34  87 N12       29.57F
MORA           LGT SNOW  34  32  93 N8        29.59F WCI  27
CAMBRIDGE      CLOUDY    39  34  81 N10G16    29.53F
RUSH CITY      CLOUDY    37  32  82 N10G18    29.54F
MOOSE LAKE     LGT SNOW  34  32  93 N5        29.57R WCI  30
HINCKLEY       CLOUDY    36  34  93 N7        29.56F
CLOQUET        LGT SNOW  34  30  86 N10       29.58R WCI  26
MCGREGOR       CLOUDY    32  30  93 N8        29.60F WCI  25
$$
MNZ071>073-080-081-089-090-097-098-262300-
   Southwest Minnesota

CITY           SKY/WX    TMP DP  RH WIND       PRES   REMARKS
MONTEVIDEO     CLOUDY    34  30  86 N16G23    29.64R WCI  23
GRANITE FALLS  CLOUDY    35  32  90 W18G24    29.66R WCI  24
CANBY          CLOUDY    32  29  90 W17G24    29.67S WCI  21
MARSHALL       LGT RAIN  33  29  85 NW23      29.64S WCI  21
REDWOOD FALLS  LGT RAIN  37  31  78 NW16G22   29.61R
OLIVIA         LGT RAIN  36  34  93 NW13      29.61R
PIPESTONE      CLOUDY    34  27  75 N17G24    29.63S WCI  23
WINDOM         CLOUDY    36  34  93 NW18G25   29.60F
WORTHINGTON    CLOUDY    35  31  85 NW21      29.61F WCI  24
JACKSON        CLOUDY    34  32  93 NW16G26   29.59F WCI  23
TRACY          CLOUDY    34  32  91 NW18G25   29.63S WCI  23
SLAYTON        CLOUDY    33  30  91 NW20      29.63R WCI  21
$$
MNZ065>067-074>077-082>085-091>093-262300-
   South Central Minnesota

CITY           SKY/WX    TMP DP  RH WIND       PRES   REMARKS
MANKATO        CLOUDY    38  33  82 NW18      29.57R
NEW ULM        DRIZZLE   37  34  87 NW13      29.58F
ST JAMES       CLOUDY    39  36  87 NW16G28   29.58F
FAIRMONT       CLOUDY    39  34  82 NW18      29.58S
GLENCOE        CLOUDY    38  34  88 NW13      29.58R
FARIBAULT      CLOUDY    39  36  87 W12G17    29.55R
OWATONNA       CLOUDY    39  36  87 NW18      29.54R
WASECA         CLOUDY    39  34  81 NW18      29.57R
ALBERT LEA     CLOUDY    39  36  87 NW13G21   29.55R
$$
MNZ078>079-086>088-094>096-262300-
   Southeast Minnesota

CITY           SKY/WX    TMP DP  RH WIND       PRES   REMARKS
ROCHESTER      CLOUDY    39  38  96 NW15      29.53R
RED WING       CLOUDY    43  36  75 NW9       29.52R
STANTON        CLOUDY    41  35  77 NW12      29.53R
DODGE CENTER   CLOUDY    39  36  87 NW13G20   29.53R
WINONA         CLOUDY    43  37  81 W9        29.52R
AUSTIN         CLOUDY    41  36  81 NW14      29.53S
PRESTON        CLOUDY    39  36  87 NW14      29.53R
$$
ABBREVIATIONS USED IN REMARKS
   TC - TEMPERATURES IN CELSIUS
  WCI - WIND CHILL INDEX
   HX - HEAT INDEX
  VSB - VISIBILITY
$$




USA.gov is the U.S. government's official web portal to all federal, state and local government web resources and services.